Tracking 25995 objects as of 19-Aug-2022
HD Live streaming from Space Station
objects crossing your sky now

STARLINK-4282

Track STARLINK-4282 now!
10-day predictions
STARLINK-4282 is classified as:


NORAD ID: 53019
Int'l Code: 2022-076AK
Perigee: 355.2 km
Apogee: 358.5 km
Inclination: 53.2 °
Period: 91.5 minutes
Semi major axis: 6727 km
RCS: Unknown
Launch date: July 7, 2022
Source: United States (US)
Launch site: AIR FORCE EASTERN TEST RANGE (AFETR)
aabbcc
Your satellite tracking list
Your tracking list is empty




NASA's NSSDC Master Catalog

Two Line Element Set (TLE):
1 53019U 22076AK  22230.58334491  .00022846  00000-0  16662-3 0  9997
2 53019  53.2179 171.5419 0002514  21.7124  68.3690 15.73217902  1307
Source of the keplerian elements: AFSPC